sat.trackr.live / text

‹ back to catalog

UNKNOWN

NORAD 81614

UNKNOWN UNKNOWN UNKNOWN

§ Identity

Operator
Country
Launch date
Launch site
Launch vehicle
Mass (kg)
RCS (m²)

External: N2YO · Heavens-Above

§ Orbital elements

Epoch: 2026-09-15T22:57:22.431168Z

Period
116.14 min
Inclination
101.8580°
Eccentricity
0.0414653
Mean motion
12.39934385 rev/d
Perigee alt
1,179.9 km
Apogee alt
1,833.8 km
Semi-major
7,885.0 km
B*
2.0879e-2
RAAN
252.2833°
Arg perigee
354.0078°
Mean anomaly
5.6117°
Rev number
57,230

§ Raw data

UNKNOWN1 81614U          26258.95650962  .00003712  00000+0  20879-1 0  99942 81614 101.8580 252.2833 0414653 354.0078   5.6117 12.39934385572304

JSON: /api/v1/satellites/81614 · /tle

For live sub-satellite position, see the globe view (requires WebGL).

§ Visibility from observer

Set your observer location to see the next 7 days of passes ≥ 10°. The values pass through the URL so the page stays shareable.

No JS? Fill the form by hand. The geolocation button needs JavaScript.